Weather History for Nasa Shuttle, FL

Change the Weather History Date:

Friday, September 20, 2013

  Actual Average Record
Temperature  
Mean Temperature 76 °F -  
Max Temperature 87 °F 84 °F 87 °F (1997)
Min Temperature 67 °F 71 °F 67 °F (2013)
Cooling Degree Days 12    
Growing Degree Days 26 (Base 50)    
Moisture  
Dew Point 68 °F    
Average Humidity 75    
Maximum Humidity 96    
Minimum Humidity 56    
Precipitation  
Precipitation 0.00 in - - ()
Sea Level Pressure  
Sea Level Pressure 30.00 in    
Wind  
Wind Speed 4 mph (ENE)    
Max Wind Speed 12 mph    
Max Gust Speed 17 mph    
Visibility 10 miles    
Events      
Averages and records for this station are not official NWS values.
T = Trace of Precipitation, MM = Missing Value Source: NWS Daily Summary

Daily Weather History Graph

Daily Weather History Graph

Search for Another Location

Airport:

Trip Planner

Search our weather history database for the weather conditions in past years. The results will help you decide how hot, cold, wet, or windy it might be!

Date:

Astronomy

Sep. 20, 2013 Rise Set
Actual Time 7:10 AM EDT 7:21 PM EDT
Civil Twilight 6:46 AM EDT 7:44 PM EDT
Nautical Twilight 6:19 AM EDT 8:12 PM EDT
Astronomical Twilight 5:51 AM EDT 8:40 PM EDT
Moon 8:06 PM EDT (9/20) 8:13 AM EDT (9/20)
Length of Visible Light 12h 58m
Length of Day
12h 11m
Full, 98% of the Moon is Illuminated
Sep 20
Full
Sep 26
Last Quarter
Oct 4
New
Oct 11
First Quarter
Oct 18
Full

Hourly Weather History & Observations

Time (EDT) Temp. Heat Index Dew Point Humidity Pressure Visibility Wind Dir Wind Speed Gust Speed Precip Events Conditions
12:58 AM 73.8 °F - 66.0 °F 77% 30.03 in 10.0 mi East 4.6 mph - N/A   Scattered Clouds
1:58 AM 74.3 °F - 66.6 °F 77% 30.03 in 10.0 mi East 3.5 mph - N/A   Partly Cloudy
2:58 AM 73.0 °F - 65.7 °F 78% 30.03 in 10.0 mi East 2.3 mph - N/A   Clear
3:58 AM 68.5 °F - 65.8 °F 91% 30.02 in 10.0 mi Calm Calm - N/A   Clear
4:58 AM 67.8 °F - 66.2 °F 95% 30.01 in 10.0 mi Calm Calm - N/A   Clear
5:58 AM 67.8 °F - 66.6 °F 96% 30.02 in 10.0 mi Calm Calm - N/A   Clear
6:58 AM 67.3 °F - 66.0 °F 96% 30.03 in 10.0 mi Calm Calm - N/A   Clear
7:58 AM 69.4 °F - 67.8 °F 95% 30.04 in 10.0 mi Calm Calm - N/A   Clear
8:58 AM 81.3 °F 84.3 °F 68.5 °F 65% 30.05 in 10.0 mi ENE 5.8 mph - N/A   Clear
9:58 AM 82.8 °F 85.3 °F 67.3 °F 59% 30.06 in 10.0 mi NE 8.1 mph - N/A   Clear
10:58 AM 83.5 °F 86.2 °F 67.3 °F 58% 30.05 in 10.0 mi NE 6.9 mph - N/A   Partly Cloudy
11:58 AM 84.9 °F 88.2 °F 68.4 °F 57% 30.04 in 10.0 mi ENE 6.9 mph 17.3 mph N/A   Partly Cloudy
12:58 PM 86.0 °F 89.7 °F 68.9 °F 56% 30.03 in 10.0 mi ENE 9.2 mph - N/A   Scattered Clouds
1:58 PM 85.1 °F 88.2 °F 68.0 °F 56% 30.01 in 10.0 mi ENE 11.5 mph - N/A   Scattered Clouds
2:58 PM 83.5 °F 86.7 °F 68.4 °F 60% 30.00 in 10.0 mi NE 8.1 mph - N/A   Scattered Clouds
3:58 PM 84.4 °F 88.2 °F 69.3 °F 60% 29.97 in 10.0 mi NNE 8.1 mph - N/A   Partly Cloudy
4:58 PM 84.4 °F 88.5 °F 69.4 °F 61% 29.97 in 10.0 mi NE 8.1 mph - N/A   Mostly Cloudy
5:58 PM 82.0 °F 85.7 °F 69.8 °F 66% 29.96 in 10.0 mi ENE 9.2 mph - N/A   Clear
6:58 PM 79.5 °F - 70.0 °F 72% 29.95 in 10.0 mi ENE 6.9 mph - N/A   Clear
7:58 PM 75.4 °F - 69.8 °F 83% 29.95 in 10.0 mi ENE 4.6 mph - N/A   Clear
8:58 PM 74.3 °F - 69.1 °F 84% 29.95 in 10.0 mi ENE 3.5 mph - N/A   Clear
9:58 PM 73.8 °F - 69.4 °F 86% 29.96 in 10.0 mi East 3.5 mph - N/A   Clear
10:58 PM 73.9 °F - 68.0 °F 82% 29.97 in 10.0 mi East 3.5 mph - N/A   Scattered Clouds
11:58 PM 71.2 °F - 67.8 °F 89% 29.97 in 10.0 mi Calm Calm - N/A   Clear